XNO35P KBWI-MPTO

Flight info

Callsign XNO35P
Flight time 4h 3m
Altitude 38000
Route CONLE5 SCOOB DCT EARZZ DCT SKARP Y313 HOAGG DCT ZFP Y319 URSUS/N0491F390 UL780 TASNO UM221 COLBY/N0489F380 DCT REPIT OSUPA2C
Aircraft A35K/H-SDE2E3GHIJ3J4J5LM1ORWXY/LB1D1

Departure

Time 2026-04-29 05:16
Airport Baltimore/Washington International Thurgood Marshall Airport (KBWI)

Arrival

Time 2026-04-29 09:19
Airport Tocumen International Airport (MPTO)
Time Latitude Longitude Altitude Speed Heading
2026-04-29 04:39 39.18340 -76.66770 161 ft 0 kts 150°
2026-04-29 05:05 39.18341 -76.66770 161 ft 1 kts 150°
2026-04-29 05:05 39.18361 -76.66787 153 ft 4 kts 143°
2026-04-29 05:05 39.18382 -76.66809 164 ft 4 kts 136°
2026-04-29 05:06 39.18401 -76.66834 162 ft 4 kts 131°
2026-04-29 05:06 39.18418 -76.66861 164 ft 4 kts 132°
2026-04-29 05:06 39.18431 -76.66878 165 ft 1 kts 143°
2026-04-29 05:06 39.18428 -76.66876 165 ft 0 kts 143°
2026-04-29 05:09 39.18415 -76.66832 163 ft 11 kts 99°
2026-04-29 05:09 39.18448 -76.66724 162 ft 14 kts 57°
2026-04-29 05:09 39.18495 -76.66605 162 ft 15 kts 93°
2026-04-29 05:09 39.18429 -76.66508 162 ft 14 kts 142°
2026-04-29 05:10 39.18350 -76.66420 162 ft 15 kts 115°
2026-04-29 05:10 39.18313 -76.66294 161 ft 15 kts 135°
2026-04-29 05:10 39.18229 -76.66211 161 ft 17 kts 144°
2026-04-29 05:10 39.18130 -76.66120 161 ft 18 kts 145°
2026-04-29 05:11 39.18046 -76.66060 160 ft 3 kts 160°
2026-04-29 05:11 39.18023 -76.66053 160 ft 6 kts 169°
2026-04-29 05:11 39.17931 -76.66084 159 ft 21 kts 217°
2026-04-29 05:11 39.17788 -76.66211 160 ft 26 kts 212°
2026-04-29 05:12 39.17639 -76.66335 160 ft 26 kts 213°
2026-04-29 05:12 39.17486 -76.66465 160 ft 23 kts 217°
2026-04-29 05:12 39.17451 -76.66622 159 ft 18 kts 273°
2026-04-29 05:12 39.17460 -76.66779 159 ft 18 kts 274°
2026-04-29 05:13 39.17470 -76.66937 159 ft 19 kts 279°
2026-04-29 05:13 39.17528 -76.67082 158 ft 17 kts 314°
2026-04-29 05:13 39.17610 -76.67169 157 ft 16 kts 323°
2026-04-29 05:13 39.17731 -76.67280 156 ft 27 kts 324°
2026-04-29 05:14 39.17908 -76.67444 154 ft 36 kts 323°
2026-04-29 05:14 39.18118 -76.67639 153 ft 36 kts 324°
2026-04-29 05:14 39.18324 -76.67827 152 ft 37 kts 324°
2026-04-29 05:14 39.18502 -76.67991 153 ft 17 kts 324°
2026-04-29 05:15 39.18565 -76.68081 154 ft 13 kts 282°
2026-04-29 05:15 39.18515 -76.68163 151 ft 12 kts 179°
2026-04-29 05:15 39.18445 -76.68115 150 ft 15 kts 146°
2026-04-29 05:15 39.18118 -76.67811 152 ft 107 kts 144°
2026-04-29 05:16 39.17278 -76.67028 279 ft 181 kts 145°
2026-04-29 05:16 39.16205 -76.66069 1321 ft 194 kts 148°
2026-04-29 05:16 39.15003 -76.65030 2156 ft 219 kts 149°
2026-04-29 05:16 39.13668 -76.63886 2580 ft 243 kts 149°
2026-04-29 05:17 39.12215 -76.62608 3120 ft 260 kts 147°
2026-04-29 05:17 39.10750 -76.61190 3901 ft 266 kts 143°
2026-04-29 05:17 39.09358 -76.59585 4677 ft 272 kts 136°
2026-04-29 05:17 39.08085 -76.57734 5427 ft 279 kts 129°
2026-04-29 05:18 39.06829 -76.55799 6233 ft 284 kts 131°
2026-04-29 05:18 39.05484 -76.53905 7047 ft 289 kts 134°
2026-04-29 05:18 39.04054 -76.52063 7903 ft 293 kts 136°
2026-04-29 05:18 39.02595 -76.50255 8779 ft 297 kts 136°
2026-04-29 05:19 39.01110 -76.48386 9650 ft 301 kts 134°
2026-04-29 05:19 38.99592 -76.46511 10504 ft 305 kts 141°
2026-04-29 05:19 38.97735 -76.45173 11132 ft 314 kts 165°
2026-04-29 05:19 38.95522 -76.45026 11462 ft 329 kts 194°
2026-04-29 05:20 38.93360 -76.46126 11828 ft 343 kts 211°
2026-04-29 05:20 38.91159 -76.47524 12243 ft 361 kts 207°
2026-04-29 05:20 38.88815 -76.48771 12938 ft 369 kts 204°
2026-04-29 05:20 38.86382 -76.49885 13628 ft 373 kts 202°
2026-04-29 05:21 38.83903 -76.50923 13950 ft 375 kts 201°
2026-04-29 05:21 38.81461 -76.52099 14007 ft 375 kts 205°
2026-04-29 05:21 38.79046 -76.53372 14000 ft 376 kts 205°
2026-04-29 05:21 38.76618 -76.54632 14006 ft 377 kts 205°
2026-04-29 05:22 38.74182 -76.55868 14009 ft 377 kts 204°
2026-04-29 05:22 38.71739 -76.57090 14007 ft 377 kts 204°
2026-04-29 05:22 38.69293 -76.58303 14007 ft 377 kts 204°
2026-04-29 05:22 38.66833 -76.59495 14135 ft 379 kts 203°
2026-04-29 05:23 38.64341 -76.60642 14738 ft 381 kts 202°
2026-04-29 05:23 38.61851 -76.61782 15580 ft 381 kts 203°
2026-04-29 05:23 38.59351 -76.62931 16378 ft 382 kts 203°
2026-04-29 05:23 38.57690 -76.63695 16884 ft 384 kts 203°
2026-04-29 05:24 38.55161 -76.64861 17600 ft 388 kts 203°
2026-04-29 05:24 38.52613 -76.66036 18339 ft 391 kts 203°
2026-04-29 05:24 38.50040 -76.67222 18959 ft 395 kts 203°
2026-04-29 05:24 38.46587 -76.68812 19728 ft 402 kts 204°
2026-04-29 05:25 38.43935 -76.70020 20337 ft 407 kts 203°
2026-04-29 05:25 38.42081 -76.70686 20742 ft 414 kts 196°
2026-04-29 05:25 38.39181 -76.71046 21351 ft 426 kts 182°
2026-04-29 05:25 38.36197 -76.70721 21943 ft 434 kts 177°
2026-04-29 05:26 38.33176 -76.70219 22539 ft 440 kts 176°
2026-04-29 05:26 38.30122 -76.69700 23135 ft 446 kts 176°
2026-04-29 05:26 38.27069 -76.69190 23721 ft 451 kts 177°
2026-04-29 05:26 38.23946 -76.68677 24226 ft 455 kts 177°
2026-04-29 05:27 38.20787 -76.68163 24733 ft 460 kts 178°
2026-04-29 05:27 38.14380 -76.67128 25751 ft 468 kts 178°
2026-04-29 05:27 38.11129 -76.66606 26224 ft 473 kts 179°
2026-04-29 05:28 38.07849 -76.66129 26707 ft 475 kts 182°
2026-04-29 05:28 38.04550 -76.65911 27212 ft 477 kts 185°
2026-04-29 05:28 38.01222 -76.65744 27715 ft 481 kts 185°
2026-04-29 05:28 37.97867 -76.65559 28207 ft 485 kts 185°
2026-04-29 05:29 37.94479 -76.65355 28697 ft 489 kts 185°
2026-04-29 05:29 37.91067 -76.65140 29176 ft 494 kts 185°
2026-04-29 05:29 37.87619 -76.64917 29608 ft 498 kts 186°
2026-04-29 05:29 37.84138 -76.64690 30016 ft 503 kts 186°
2026-04-29 05:30 37.80627 -76.64458 30428 ft 507 kts 186°
2026-04-29 05:30 37.77105 -76.64223 30878 ft 508 kts 186°
2026-04-29 05:30 37.73571 -76.63986 31335 ft 509 kts 186°
2026-04-29 05:30 37.70029 -76.63750 31759 ft 511 kts 187°
2026-04-29 05:31 37.66474 -76.63514 32167 ft 512 kts 187°
2026-04-29 05:31 37.62912 -76.63277 32571 ft 513 kts 187°
2026-04-29 05:31 37.59353 -76.63149 32939 ft 508 kts 192°
2026-04-29 05:31 37.55860 -76.63418 33483 ft 499 kts 195°
2026-04-29 05:32 37.52430 -76.63824 34132 ft 492 kts 197°
2026-04-29 05:32 37.49035 -76.64294 34582 ft 489 kts 198°
2026-04-29 05:32 37.45655 -76.64793 34867 ft 491 kts 198°
2026-04-29 05:32 37.42260 -76.65299 35106 ft 492 kts 198°
2026-04-29 05:33 37.38896 -76.65791 35388 ft 493 kts 198°
2026-04-29 05:33 37.35439 -76.66282 35684 ft 494 kts 198°
2026-04-29 05:33 37.32061 -76.66751 35966 ft 495 kts 198°
2026-04-29 05:33 37.28633 -76.67220 36247 ft 496 kts 198°
2026-04-29 05:34 37.25155 -76.67693 36503 ft 497 kts 198°
2026-04-29 05:34 37.21763 -76.68152 36766 ft 497 kts 198°
2026-04-29 05:34 37.18318 -76.68618 36993 ft 498 kts 198°
2026-04-29 05:34 37.14864 -76.69087 37222 ft 500 kts 198°
2026-04-29 05:35 37.11406 -76.69556 37470 ft 500 kts 198°
2026-04-29 05:35 37.07946 -76.70023 37727 ft 501 kts 198°
2026-04-29 05:35 37.04431 -76.70498 37958 ft 501 kts 198°
2026-04-29 05:35 37.01008 -76.70961 38098 ft 503 kts 198°
2026-04-29 05:36 36.94028 -76.71907 38108 ft 506 kts 198°
2026-04-29 05:36 36.86978 -76.72855 38121 ft 506 kts 197°
2026-04-29 05:37 36.80026 -76.73787 38121 ft 506 kts 198°
2026-04-29 05:37 36.72983 -76.74731 38096 ft 506 kts 197°
2026-04-29 05:38 36.65993 -76.75668 38118 ft 505 kts 197°
2026-04-29 05:38 36.59060 -76.76594 38117 ft 504 kts 197°
2026-04-29 05:39 36.52087 -76.77526 38115 ft 504 kts 197°
2026-04-29 05:39 36.45109 -76.78458 38114 ft 504 kts 197°
2026-04-29 05:40 36.38140 -76.79385 38113 ft 504 kts 197°
2026-04-29 05:40 36.31171 -76.80310 38115 ft 504 kts 197°
2026-04-29 05:41 36.24201 -76.81235 38099 ft 504 kts 196°
2026-04-29 05:41 36.17218 -76.82161 38112 ft 505 kts 196°
2026-04-29 05:42 36.10229 -76.83084 38111 ft 505 kts 196°
2026-04-29 05:42 36.03234 -76.84006 38111 ft 505 kts 196°
2026-04-29 05:43 35.96237 -76.84928 38112 ft 506 kts 196°
2026-04-29 05:43 35.89387 -76.86374 38117 ft 491 kts 206°
2026-04-29 05:44 35.82886 -76.88778 38112 ft 484 kts 208°
2026-04-29 05:44 35.76497 -76.91323 38103 ft 482 kts 208°
2026-04-29 05:45 35.70113 -76.93883 38112 ft 483 kts 208°
2026-04-29 05:45 35.63719 -76.96417 38110 ft 483 kts 208°
2026-04-29 05:46 35.57358 -76.98919 38097 ft 483 kts 208°
2026-04-29 05:46 35.50914 -77.01448 38093 ft 485 kts 207°
2026-04-29 05:47 35.44478 -77.03972 38099 ft 486 kts 207°
2026-04-29 05:47 35.38065 -77.06479 38109 ft 487 kts 207°
2026-04-29 05:48 35.31573 -77.09012 38110 ft 487 kts 207°
2026-04-29 05:48 35.25161 -77.11512 38110 ft 487 kts 207°
2026-04-29 05:49 35.18663 -77.14041 38121 ft 487 kts 207°
2026-04-29 05:49 35.12255 -77.16531 38106 ft 487 kts 207°
2026-04-29 05:50 35.05805 -77.19034 38093 ft 487 kts 207°
2026-04-29 05:50 34.99336 -77.21541 38114 ft 489 kts 207°
2026-04-29 05:51 34.92856 -77.24045 38115 ft 487 kts 207°
2026-04-29 05:51 34.86412 -77.26527 38117 ft 484 kts 207°
2026-04-29 05:52 34.79993 -77.29003 38106 ft 484 kts 206°
2026-04-29 05:52 34.73579 -77.31472 38119 ft 483 kts 206°
2026-04-29 05:53 34.67179 -77.33932 38108 ft 483 kts 206°
2026-04-29 05:53 34.60771 -77.36390 38107 ft 483 kts 206°
2026-04-29 05:54 34.54371 -77.38841 38110 ft 482 kts 206°
2026-04-29 05:54 34.47900 -77.41084 38116 ft 489 kts 199°
2026-04-29 05:55 34.41178 -77.42551 38115 ft 492 kts 198°
2026-04-29 05:55 34.34411 -77.43864 38113 ft 493 kts 197°
2026-04-29 05:56 34.27674 -77.45155 38119 ft 495 kts 197°
2026-04-29 05:56 34.20872 -77.46470 38119 ft 495 kts 197°
2026-04-29 05:57 34.14067 -77.47794 38119 ft 495 kts 197°
2026-04-29 05:57 34.07263 -77.49118 38116 ft 496 kts 197°
2026-04-29 05:58 34.00430 -77.50448 38124 ft 498 kts 197°
2026-04-29 05:58 33.93576 -77.51776 38130 ft 499 kts 197°
2026-04-29 05:59 33.86720 -77.53102 38127 ft 499 kts 197°
2026-04-29 05:59 33.79865 -77.54426 38126 ft 499 kts 196°
2026-04-29 06:00 33.73012 -77.55749 38135 ft 499 kts 196°
2026-04-29 06:00 33.66146 -77.57071 38140 ft 499 kts 196°
2026-04-29 06:01 33.59297 -77.58417 38133 ft 497 kts 199°
2026-04-29 06:01 33.52658 -77.60499 38141 ft 493 kts 203°
2026-04-29 06:02 33.46067 -77.62791 38147 ft 493 kts 203°
2026-04-29 06:02 33.39480 -77.65115 38147 ft 494 kts 203°
2026-04-29 06:03 33.32886 -77.67430 38124 ft 494 kts 203°
2026-04-29 06:03 33.26298 -77.69728 38142 ft 493 kts 203°
2026-04-29 06:04 33.19710 -77.72020 38141 ft 493 kts 203°
2026-04-29 06:04 33.13125 -77.74308 38150 ft 493 kts 203°
2026-04-29 06:05 33.06589 -77.76575 38139 ft 493 kts 202°
2026-04-29 06:05 33.00001 -77.78858 38155 ft 493 kts 202°
2026-04-29 06:06 32.93405 -77.81138 38140 ft 493 kts 202°
2026-04-29 06:06 32.86817 -77.83413 38134 ft 493 kts 202°
2026-04-29 06:07 32.80219 -77.85688 38154 ft 493 kts 202°
2026-04-29 06:07 32.73627 -77.87957 38152 ft 493 kts 202°
2026-04-29 06:08 32.67028 -77.90226 38138 ft 494 kts 202°
2026-04-29 06:08 32.60410 -77.92433 38153 ft 495 kts 201°
2026-04-29 06:09 32.53762 -77.94561 38148 ft 496 kts 201°
2026-04-29 06:09 32.47094 -77.96699 38146 ft 498 kts 201°
2026-04-29 06:10 32.40394 -77.98861 38151 ft 499 kts 201°
2026-04-29 06:10 32.33687 -78.01025 38151 ft 500 kts 201°
2026-04-29 06:11 32.26974 -78.03190 38149 ft 501 kts 201°
2026-04-29 06:11 32.20251 -78.05354 38148 ft 501 kts 201°
2026-04-29 06:12 32.14659 -78.07152 38148 ft 501 kts 201°
2026-04-29 06:12 32.07930 -78.09312 38149 ft 501 kts 201°
2026-04-29 06:13 32.00054 -78.11838 38148 ft 502 kts 200°
2026-04-29 06:13 31.94443 -78.13634 38148 ft 503 kts 200°
2026-04-29 06:14 31.87688 -78.15792 38147 ft 503 kts 200°
2026-04-29 06:14 31.80936 -78.17946 38148 ft 503 kts 200°
2026-04-29 06:15 31.74177 -78.20101 38151 ft 504 kts 200°
2026-04-29 06:15 31.67401 -78.22257 38151 ft 505 kts 200°
2026-04-29 06:16 31.60619 -78.24412 38151 ft 505 kts 200°
2026-04-29 06:16 31.53841 -78.26561 38151 ft 505 kts 200°
2026-04-29 06:17 31.47104 -78.28697 38151 ft 506 kts 199°
2026-04-29 06:17 31.40333 -78.30917 38155 ft 505 kts 200°
2026-04-29 06:18 31.33579 -78.33202 38156 ft 505 kts 200°
2026-04-29 06:18 31.26819 -78.35481 38158 ft 506 kts 200°
2026-04-29 06:19 31.20053 -78.37747 38154 ft 506 kts 200°
2026-04-29 06:19 31.13279 -78.40004 38154 ft 506 kts 200°
2026-04-29 06:20 31.06499 -78.42259 38157 ft 506 kts 200°
2026-04-29 06:20 30.99725 -78.44510 38149 ft 506 kts 200°
2026-04-29 06:21 30.92934 -78.46765 38160 ft 508 kts 200°
2026-04-29 06:21 30.86135 -78.49018 38165 ft 508 kts 200°
2026-04-29 06:22 30.79329 -78.51269 38165 ft 508 kts 199°
2026-04-29 06:22 30.72567 -78.53503 38153 ft 508 kts 199°
2026-04-29 06:23 30.65748 -78.55755 38176 ft 511 kts 199°
2026-04-29 06:23 30.58913 -78.58006 38169 ft 511 kts 199°
2026-04-29 06:24 30.52070 -78.60256 38159 ft 511 kts 199°
2026-04-29 06:24 30.45230 -78.62503 38162 ft 511 kts 199°
2026-04-29 06:25 30.38378 -78.64751 38166 ft 512 kts 199°
2026-04-29 06:25 30.31510 -78.67000 38172 ft 513 kts 199°
2026-04-29 06:26 30.24646 -78.69244 38158 ft 513 kts 199°
2026-04-29 06:26 30.17761 -78.71491 38165 ft 514 kts 199°
2026-04-29 06:27 30.10871 -78.73737 38166 ft 515 kts 199°
2026-04-29 06:27 30.03979 -78.75982 38160 ft 515 kts 199°
2026-04-29 06:28 29.97087 -78.78223 38158 ft 515 kts 199°
2026-04-29 06:28 29.90196 -78.80462 38149 ft 515 kts 198°
2026-04-29 06:29 29.83288 -78.82701 38156 ft 516 kts 198°
2026-04-29 06:29 29.76198 -78.84043 38150 ft 520 kts 182°
2026-04-29 06:30 29.65365 -78.83766 38146 ft 522 kts 179°
2026-04-29 06:31 29.58103 -78.83375 38136 ft 522 kts 178°
2026-04-29 06:31 29.50851 -78.83005 38140 ft 522 kts 179°
2026-04-29 06:32 29.43591 -78.82663 38130 ft 522 kts 179°
2026-04-29 06:32 29.36333 -78.82331 38128 ft 522 kts 179°
2026-04-29 06:33 29.29080 -78.82002 38124 ft 521 kts 178°
2026-04-29 06:33 29.21830 -78.81670 38120 ft 521 kts 178°
2026-04-29 06:34 29.14584 -78.81338 38122 ft 521 kts 178°
2026-04-29 06:34 29.07336 -78.81007 38121 ft 521 kts 178°
2026-04-29 06:35 29.00097 -78.80677 38123 ft 520 kts 178°
2026-04-29 06:35 28.92867 -78.80348 38121 ft 520 kts 178°
2026-04-29 06:36 28.85644 -78.80019 38121 ft 520 kts 178°
2026-04-29 06:36 28.78419 -78.79691 38121 ft 520 kts 178°
2026-04-29 06:37 28.71207 -78.79364 38121 ft 518 kts 178°
2026-04-29 06:37 28.64015 -78.79039 38121 ft 517 kts 178°
2026-04-29 06:38 28.56826 -78.78713 38122 ft 517 kts 178°
2026-04-29 06:38 28.49637 -78.78389 38122 ft 517 kts 178°
2026-04-29 06:39 28.42467 -78.78065 38116 ft 515 kts 178°
2026-04-29 06:39 28.35367 -78.77746 38122 ft 514 kts 178°
2026-04-29 06:40 28.28220 -78.77424 38123 ft 514 kts 178°
2026-04-29 06:40 28.21071 -78.77103 38121 ft 514 kts 178°
2026-04-29 06:41 28.13944 -78.76784 38122 ft 511 kts 178°
2026-04-29 06:41 28.06862 -78.76467 38118 ft 509 kts 178°
2026-04-29 06:42 27.99785 -78.76150 38116 ft 509 kts 178°
2026-04-29 06:42 27.92711 -78.75834 38116 ft 509 kts 178°
2026-04-29 06:43 27.85646 -78.75518 38117 ft 507 kts 179°
2026-04-29 06:43 27.78618 -78.75205 38116 ft 505 kts 179°
2026-04-29 06:44 27.71651 -78.74896 38114 ft 504 kts 179°
2026-04-29 06:44 27.64636 -78.74584 38116 ft 505 kts 179°
2026-04-29 06:45 27.57624 -78.74271 38115 ft 503 kts 180°
2026-04-29 06:45 27.50642 -78.73962 38116 ft 501 kts 180°
2026-04-29 06:46 27.43676 -78.73655 38114 ft 501 kts 180°
2026-04-29 06:46 27.36709 -78.73348 38113 ft 501 kts 180°
2026-04-29 06:47 27.29746 -78.73040 38114 ft 501 kts 180°
2026-04-29 06:47 27.22775 -78.72733 38113 ft 501 kts 180°
2026-04-29 06:48 27.15807 -78.72426 38114 ft 501 kts 180°
2026-04-29 06:48 27.08835 -78.72119 38116 ft 501 kts 180°
2026-04-29 06:49 27.01870 -78.71813 38099 ft 501 kts 180°
2026-04-29 06:49 26.94913 -78.71506 38113 ft 499 kts 180°
2026-04-29 06:50 26.87984 -78.71203 38113 ft 498 kts 180°
2026-04-29 06:50 26.81056 -78.70901 38113 ft 498 kts 180°
2026-04-29 06:51 26.74129 -78.70598 38113 ft 498 kts 180°
2026-04-29 06:51 26.67200 -78.70295 38103 ft 498 kts 181°
2026-04-29 06:52 26.60276 -78.69993 38102 ft 498 kts 181°
2026-04-29 06:52 26.53384 -78.70161 38102 ft 494 kts 189°
2026-04-29 06:53 26.46563 -78.71066 38100 ft 493 kts 191°
2026-04-29 06:53 26.39763 -78.72093 38100 ft 493 kts 191°
2026-04-29 06:54 26.32966 -78.73126 38108 ft 493 kts 191°
2026-04-29 06:54 26.26169 -78.74143 38110 ft 493 kts 191°
2026-04-29 06:55 26.19376 -78.75148 38114 ft 493 kts 191°
2026-04-29 06:55 26.12583 -78.76151 38114 ft 493 kts 191°
2026-04-29 06:56 26.05783 -78.77152 38111 ft 493 kts 191°
2026-04-29 06:56 25.98985 -78.78154 38114 ft 493 kts 191°
2026-04-29 06:57 25.92227 -78.79149 38115 ft 493 kts 191°
2026-04-29 06:57 25.85427 -78.80149 38113 ft 493 kts 191°
2026-04-29 06:58 25.78630 -78.81147 38112 ft 493 kts 191°
2026-04-29 06:58 25.71827 -78.82145 38111 ft 493 kts 191°
2026-04-29 06:59 25.65027 -78.83142 38109 ft 493 kts 191°
2026-04-29 06:59 25.58227 -78.84137 38111 ft 493 kts 191°
2026-04-29 07:00 25.51423 -78.85131 38089 ft 493 kts 191°
2026-04-29 07:00 25.44613 -78.86124 38116 ft 494 kts 191°
2026-04-29 07:01 25.37789 -78.87120 38113 ft 495 kts 191°
2026-04-29 07:01 25.30967 -78.88114 38110 ft 495 kts 191°
2026-04-29 07:02 25.25296 -78.88940 38109 ft 494 kts 191°
2026-04-29 07:02 25.18468 -78.89932 38104 ft 495 kts 191°
2026-04-29 07:03 25.11625 -78.90926 38107 ft 496 kts 191°
2026-04-29 07:03 25.04776 -78.91920 38105 ft 496 kts 191°
2026-04-29 07:04 24.97931 -78.92911 38109 ft 496 kts 191°
2026-04-29 07:04 24.91084 -78.93902 38083 ft 496 kts 192°
2026-04-29 07:05 24.84224 -78.94894 38103 ft 497 kts 191°
2026-04-29 07:05 24.77355 -78.95886 38103 ft 498 kts 191°
2026-04-29 07:06 24.70484 -78.96876 38104 ft 498 kts 191°
2026-04-29 07:06 24.63620 -78.97865 38102 ft 498 kts 191°
2026-04-29 07:07 24.56750 -78.98853 38097 ft 498 kts 192°
2026-04-29 07:07 24.49880 -78.99841 38103 ft 498 kts 192°
2026-04-29 07:08 24.43009 -79.00828 38104 ft 498 kts 192°
2026-04-29 07:08 24.36136 -79.01814 38358 ft 498 kts 192°
2026-04-29 07:08 24.32710 -79.02304 38686 ft 496 kts 192°
2026-04-29 07:09 24.29335 -79.02787 38939 ft 495 kts 192°
2026-04-29 07:09 24.25880 -79.03281 39165 ft 494 kts 192°
2026-04-29 07:09 24.22471 -79.03768 39395 ft 493 kts 192°
2026-04-29 07:09 24.19072 -79.04254 39622 ft 492 kts 192°
2026-04-29 07:10 24.15677 -79.04740 39831 ft 492 kts 192°
2026-04-29 07:10 24.12285 -79.05224 40025 ft 491 kts 192°
2026-04-29 07:10 24.08888 -79.05711 40094 ft 494 kts 192°
2026-04-29 07:11 24.02111 -79.06677 40098 ft 495 kts 192°
2026-04-29 07:11 23.95206 -79.07102 40096 ft 498 kts 186°
2026-04-29 07:12 23.88270 -79.07277 40099 ft 499 kts 186°
2026-04-29 07:12 23.81327 -79.07412 40089 ft 499 kts 186°
2026-04-29 07:13 23.74387 -79.07555 40093 ft 499 kts 186°
2026-04-29 07:13 23.67446 -79.07707 40076 ft 499 kts 186°
2026-04-29 07:14 23.60505 -79.07862 40083 ft 499 kts 186°
2026-04-29 07:14 23.53560 -79.08018 40082 ft 499 kts 186°
2026-04-29 07:15 23.46613 -79.08173 40094 ft 499 kts 186°
2026-04-29 07:15 23.39666 -79.08327 40078 ft 499 kts 186°
2026-04-29 07:16 23.32716 -79.08482 40085 ft 499 kts 186°
2026-04-29 07:16 23.25770 -79.08636 40086 ft 499 kts 186°
2026-04-29 07:17 23.18825 -79.08790 40087 ft 499 kts 186°
2026-04-29 07:17 23.11877 -79.08944 40086 ft 499 kts 186°
2026-04-29 07:18 23.04977 -79.09097 40071 ft 499 kts 186°
2026-04-29 07:18 22.98035 -79.09250 40080 ft 498 kts 186°
2026-04-29 07:19 22.91105 -79.09403 40081 ft 498 kts 186°
2026-04-29 07:19 22.84173 -79.09556 40081 ft 498 kts 186°
2026-04-29 07:20 22.77244 -79.09709 40082 ft 498 kts 186°
2026-04-29 07:20 22.70314 -79.09862 40074 ft 498 kts 186°
2026-04-29 07:21 22.63379 -79.10016 40077 ft 498 kts 186°
2026-04-29 07:21 22.56446 -79.10167 40075 ft 498 kts 186°
2026-04-29 07:22 22.49514 -79.10316 40075 ft 498 kts 186°
2026-04-29 07:22 22.42581 -79.10466 40077 ft 498 kts 186°
2026-04-29 07:23 22.35654 -79.10616 40073 ft 497 kts 186°
2026-04-29 07:23 22.28737 -79.10766 40072 ft 497 kts 186°
2026-04-29 07:24 22.21825 -79.10915 40069 ft 497 kts 186°
2026-04-29 07:24 22.14902 -79.11034 40066 ft 499 kts 183°
2026-04-29 07:25 22.07968 -79.10057 40055 ft 505 kts 174°
2026-04-29 07:25 22.01096 -79.08574 40070 ft 503 kts 172°
2026-04-29 07:26 21.94290 -79.07027 40066 ft 503 kts 172°
2026-04-29 07:26 21.87441 -79.05486 40065 ft 502 kts 172°
2026-04-29 07:27 21.80615 -79.03969 40058 ft 500 kts 173°
2026-04-29 07:27 21.73800 -79.02464 40054 ft 499 kts 172°
2026-04-29 07:28 21.67015 -79.00967 40055 ft 497 kts 172°
2026-04-29 07:28 21.60235 -78.99472 40055 ft 497 kts 172°
2026-04-29 07:29 21.53465 -78.97981 40052 ft 497 kts 173°
2026-04-29 07:29 21.46695 -78.96490 40052 ft 497 kts 173°
2026-04-29 07:30 21.39919 -78.95000 40045 ft 496 kts 173°
2026-04-29 07:30 21.33163 -78.93514 40050 ft 495 kts 173°
2026-04-29 07:31 21.23046 -78.91294 40048 ft 495 kts 173°
2026-04-29 07:31 21.16297 -78.89817 40049 ft 495 kts 173°
2026-04-29 07:32 21.09555 -78.88340 40049 ft 495 kts 173°
2026-04-29 07:32 21.02808 -78.86863 40043 ft 495 kts 173°
2026-04-29 07:33 20.96061 -78.85387 40048 ft 495 kts 173°
2026-04-29 07:33 20.89314 -78.83914 40044 ft 495 kts 173°
2026-04-29 07:34 20.82568 -78.82442 40041 ft 495 kts 173°
2026-04-29 07:34 20.75823 -78.80972 40033 ft 495 kts 173°
2026-04-29 07:35 20.69081 -78.79504 40038 ft 494 kts 173°
2026-04-29 07:35 20.62341 -78.78037 40037 ft 494 kts 173°
2026-04-29 07:36 20.55651 -78.76583 40041 ft 494 kts 173°
2026-04-29 07:36 20.48913 -78.75120 40033 ft 494 kts 173°
2026-04-29 07:37 20.42177 -78.73659 40026 ft 494 kts 172°
2026-04-29 07:37 20.35440 -78.72198 40034 ft 494 kts 172°
2026-04-29 07:38 20.28720 -78.70743 40035 ft 494 kts 172°
2026-04-29 07:38 20.21986 -78.69285 40031 ft 494 kts 172°
2026-04-29 07:39 20.15254 -78.67829 40035 ft 494 kts 172°
2026-04-29 07:39 20.08516 -78.66374 40024 ft 494 kts 172°
2026-04-29 07:40 20.01786 -78.64957 40028 ft 491 kts 175°
2026-04-29 07:40 19.95013 -78.64446 40031 ft 487 kts 182°
2026-04-29 07:41 19.88244 -78.64259 40032 ft 486 kts 183°
2026-04-29 07:41 19.81474 -78.64127 40028 ft 486 kts 183°
2026-04-29 07:42 19.74706 -78.63987 40036 ft 486 kts 182°
2026-04-29 07:42 19.67947 -78.63834 40021 ft 485 kts 182°
2026-04-29 07:43 19.61196 -78.63678 40033 ft 485 kts 182°
2026-04-29 07:43 19.54443 -78.63521 40036 ft 485 kts 182°
2026-04-29 07:44 19.47695 -78.63364 40021 ft 485 kts 182°
2026-04-29 07:44 19.40948 -78.63209 40029 ft 484 kts 182°
2026-04-29 07:45 19.34222 -78.63053 40025 ft 483 kts 182°
2026-04-29 07:45 19.27500 -78.62898 40028 ft 483 kts 182°
2026-04-29 07:46 19.20785 -78.62744 40020 ft 483 kts 182°
2026-04-29 07:46 19.14070 -78.62589 40029 ft 483 kts 182°
2026-04-29 07:47 19.07353 -78.62435 40021 ft 482 kts 182°
2026-04-29 07:47 19.01781 -78.62307 40017 ft 482 kts 182°
2026-04-29 07:48 18.95083 -78.62153 40017 ft 481 kts 182°
2026-04-29 07:48 18.87296 -78.61982 40018 ft 481 kts 182°
2026-04-29 07:49 18.80597 -78.61827 40015 ft 481 kts 182°
2026-04-29 07:49 18.74984 -78.61697 40010 ft 481 kts 182°
2026-04-29 07:50 18.68292 -78.61543 40020 ft 481 kts 182°
2026-04-29 07:50 18.61609 -78.61391 40021 ft 480 kts 182°
2026-04-29 07:51 18.54923 -78.61239 40021 ft 481 kts 182°
2026-04-29 07:51 18.48236 -78.61088 40015 ft 480 kts 182°
2026-04-29 07:52 18.41547 -78.60936 40010 ft 480 kts 182°
2026-04-29 07:52 18.34875 -78.60785 40015 ft 479 kts 182°
2026-04-29 07:53 18.28260 -78.60635 40015 ft 479 kts 182°
2026-04-29 07:53 18.21594 -78.60484 40015 ft 479 kts 182°
2026-04-29 07:54 18.14938 -78.60334 40011 ft 479 kts 182°
2026-04-29 07:54 18.08274 -78.60184 40007 ft 479 kts 182°
2026-04-29 07:55 18.01628 -78.60033 40012 ft 477 kts 182°
2026-04-29 07:55 17.94999 -78.59884 40012 ft 476 kts 182°
2026-04-29 07:56 17.88370 -78.59735 40012 ft 476 kts 182°
2026-04-29 07:56 17.81742 -78.59586 40013 ft 476 kts 182°
2026-04-29 07:57 17.75117 -78.59437 40011 ft 476 kts 182°
2026-04-29 07:57 17.68491 -78.59291 40013 ft 476 kts 182°
2026-04-29 07:58 17.61862 -78.59141 40012 ft 476 kts 182°
2026-04-29 07:58 17.55237 -78.58989 40012 ft 476 kts 182°
2026-04-29 07:59 17.48605 -78.58838 40013 ft 476 kts 182°
2026-04-29 07:59 17.41982 -78.58689 40012 ft 476 kts 182°
2026-04-29 08:00 17.35416 -78.58540 40013 ft 474 kts 183°
2026-04-29 08:00 17.28832 -78.58391 40010 ft 473 kts 183°
2026-04-29 08:01 17.22257 -78.58244 40007 ft 473 kts 183°
2026-04-29 08:01 17.15678 -78.58097 40005 ft 473 kts 183°
2026-04-29 08:02 17.09098 -78.57949 40006 ft 473 kts 183°
2026-04-29 08:02 17.02524 -78.57800 40007 ft 472 kts 183°
2026-04-29 08:03 16.95964 -78.57653 40002 ft 471 kts 183°
2026-04-29 08:03 16.89416 -78.57507 40006 ft 471 kts 183°
2026-04-29 08:04 16.82863 -78.57361 39994 ft 471 kts 183°
2026-04-29 08:04 16.76313 -78.57214 39995 ft 471 kts 183°
2026-04-29 08:05 16.69761 -78.57067 39994 ft 471 kts 183°
2026-04-29 08:05 16.63211 -78.56921 39999 ft 471 kts 183°
2026-04-29 08:06 16.56704 -78.56776 39991 ft 471 kts 183°
2026-04-29 08:06 16.50156 -78.56630 39989 ft 471 kts 183°
2026-04-29 08:07 16.43605 -78.56483 39993 ft 471 kts 183°
2026-04-29 08:07 16.37054 -78.56337 39977 ft 471 kts 183°
2026-04-29 08:08 16.30497 -78.56191 39982 ft 471 kts 183°
2026-04-29 08:08 16.23935 -78.56045 39989 ft 472 kts 183°
2026-04-29 08:09 16.17377 -78.55899 39971 ft 472 kts 183°
2026-04-29 08:09 16.10812 -78.55754 39983 ft 472 kts 183°
2026-04-29 08:10 16.04251 -78.55608 39983 ft 472 kts 183°
2026-04-29 08:10 15.97686 -78.55462 39975 ft 472 kts 184°
2026-04-29 08:11 15.91114 -78.55316 39976 ft 472 kts 184°
2026-04-29 08:11 15.84546 -78.55170 39978 ft 472 kts 184°
2026-04-29 08:12 15.77978 -78.55025 39978 ft 472 kts 184°
2026-04-29 08:12 15.71409 -78.54879 39974 ft 472 kts 184°
2026-04-29 08:13 15.64843 -78.54734 39971 ft 472 kts 184°
2026-04-29 08:13 15.58269 -78.54589 39969 ft 472 kts 184°
2026-04-29 08:14 15.51698 -78.54444 39966 ft 473 kts 184°
2026-04-29 08:14 15.45165 -78.54299 39967 ft 473 kts 184°
2026-04-29 08:15 15.38589 -78.54154 39963 ft 472 kts 184°
2026-04-29 08:15 15.32018 -78.54009 39958 ft 473 kts 184°
2026-04-29 08:16 15.25442 -78.53864 39961 ft 472 kts 184°
2026-04-29 08:16 15.18869 -78.53719 39959 ft 472 kts 184°
2026-04-29 08:17 15.12295 -78.53575 39955 ft 472 kts 184°
2026-04-29 08:17 15.05719 -78.53430 39956 ft 473 kts 184°
2026-04-29 08:18 14.99175 -78.53551 39945 ft 467 kts 192°
2026-04-29 08:18 14.92786 -78.54549 39954 ft 464 kts 193°
2026-04-29 08:19 14.86412 -78.55624 39952 ft 464 kts 194°
2026-04-29 08:19 14.80054 -78.56704 39953 ft 463 kts 194°
2026-04-29 08:20 14.73685 -78.57787 39946 ft 463 kts 194°
2026-04-29 08:20 14.67321 -78.58869 39945 ft 463 kts 194°
2026-04-29 08:21 14.60956 -78.59952 39941 ft 464 kts 193°
2026-04-29 08:21 14.54588 -78.61034 39943 ft 464 kts 193°
2026-04-29 08:22 14.48220 -78.62115 39940 ft 464 kts 193°
2026-04-29 08:22 14.41858 -78.63195 39942 ft 464 kts 193°
2026-04-29 08:23 14.35490 -78.64275 39940 ft 464 kts 193°
2026-04-29 08:23 14.29168 -78.65346 39937 ft 464 kts 193°
2026-04-29 08:24 14.22803 -78.66425 39939 ft 464 kts 193°
2026-04-29 08:24 14.16435 -78.67503 39934 ft 464 kts 193°
2026-04-29 08:25 14.10062 -78.68582 39937 ft 464 kts 193°
2026-04-29 08:25 14.03700 -78.69657 39934 ft 464 kts 193°
2026-04-29 08:26 13.97328 -78.70734 39933 ft 464 kts 193°
2026-04-29 08:26 13.90959 -78.71811 39930 ft 464 kts 193°
2026-04-29 08:27 13.84597 -78.72885 39931 ft 463 kts 193°
2026-04-29 08:27 13.78235 -78.73959 39926 ft 463 kts 193°
2026-04-29 08:28 13.71906 -78.75026 39926 ft 463 kts 193°
2026-04-29 08:28 13.65546 -78.76098 39926 ft 463 kts 193°
2026-04-29 08:29 13.59182 -78.77171 39921 ft 463 kts 193°
2026-04-29 08:29 13.52826 -78.78241 39919 ft 462 kts 193°
2026-04-29 08:30 13.43309 -78.79842 39922 ft 462 kts 193°
2026-04-29 08:31 13.36962 -78.80910 39918 ft 462 kts 193°
2026-04-29 08:31 13.30625 -78.81975 39916 ft 462 kts 193°
2026-04-29 08:32 13.24281 -78.83040 39906 ft 462 kts 193°
2026-04-29 08:32 13.17947 -78.84104 39914 ft 461 kts 193°
2026-04-29 08:33 13.11624 -78.85165 39914 ft 460 kts 193°
2026-04-29 08:33 13.05304 -78.86225 39911 ft 460 kts 193°
2026-04-29 08:34 12.98980 -78.87285 39911 ft 460 kts 193°
2026-04-29 08:34 12.92660 -78.88344 39908 ft 460 kts 193°
2026-04-29 08:35 12.86341 -78.89402 39908 ft 460 kts 193°
2026-04-29 08:35 12.80024 -78.90459 39902 ft 460 kts 193°
2026-04-29 08:36 12.73713 -78.91515 39904 ft 460 kts 193°
2026-04-29 08:36 12.67401 -78.92571 39902 ft 460 kts 193°
2026-04-29 08:37 12.62150 -78.93448 39899 ft 460 kts 193°
2026-04-29 08:37 12.54813 -78.94674 39900 ft 460 kts 193°
2026-04-29 08:38 12.48511 -78.95726 39894 ft 458 kts 193°
2026-04-29 08:38 12.43239 -78.96605 39895 ft 458 kts 193°
2026-04-29 08:39 12.36946 -78.97655 39890 ft 458 kts 193°
2026-04-29 08:39 12.30652 -78.98705 39892 ft 458 kts 193°
2026-04-29 08:40 12.24404 -78.99746 39894 ft 458 kts 193°
2026-04-29 08:40 12.18075 -79.00800 39883 ft 458 kts 193°
2026-04-29 08:41 12.11828 -79.01840 39889 ft 457 kts 193°
2026-04-29 08:41 12.05557 -79.02883 39889 ft 457 kts 193°
2026-04-29 08:42 11.99283 -79.03927 39891 ft 457 kts 193°
2026-04-29 08:42 11.93010 -79.04970 39884 ft 457 kts 193°
2026-04-29 08:43 11.86738 -79.06012 39884 ft 457 kts 193°
2026-04-29 08:43 11.80461 -79.07055 39882 ft 457 kts 193°
2026-04-29 08:44 11.74194 -79.08095 39880 ft 456 kts 193°
2026-04-29 08:44 11.67934 -79.09134 39875 ft 456 kts 193°
2026-04-29 08:45 11.61675 -79.10172 39878 ft 456 kts 193°
2026-04-29 08:45 11.55414 -79.11210 39875 ft 456 kts 193°
2026-04-29 08:46 11.49174 -79.12243 39865 ft 446 kts 193°
2026-04-29 08:46 11.43009 -79.13265 39874 ft 453 kts 193°
2026-04-29 08:47 11.36783 -79.14296 39872 ft 453 kts 193°
2026-04-29 08:47 11.30559 -79.15326 39874 ft 453 kts 193°
2026-04-29 08:48 11.24336 -79.16355 39869 ft 453 kts 193°
2026-04-29 08:48 11.18115 -79.17384 39873 ft 453 kts 193°
2026-04-29 08:49 11.11895 -79.18412 39873 ft 453 kts 193°
2026-04-29 08:49 11.05674 -79.19439 39850 ft 452 kts 193°
2026-04-29 08:49 11.02576 -79.19951 39638 ft 450 kts 193°
2026-04-29 08:50 10.99491 -79.20460 39409 ft 449 kts 193°
2026-04-29 08:50 10.96403 -79.20970 39173 ft 450 kts 193°
2026-04-29 08:50 10.93312 -79.21480 38952 ft 450 kts 193°
2026-04-29 08:50 10.90216 -79.21992 38719 ft 451 kts 193°
2026-04-29 08:51 10.87112 -79.22504 38485 ft 452 kts 193°
2026-04-29 08:51 10.84011 -79.23015 38222 ft 452 kts 193°
2026-04-29 08:51 10.80897 -79.23529 37952 ft 453 kts 193°
2026-04-29 08:51 10.77788 -79.24042 37685 ft 453 kts 193°
2026-04-29 08:52 10.74669 -79.24556 37431 ft 454 kts 193°
2026-04-29 08:52 10.71553 -79.25069 37188 ft 454 kts 193°
2026-04-29 08:52 10.68427 -79.25584 36924 ft 455 kts 193°
2026-04-29 08:52 10.65346 -79.26092 36678 ft 455 kts 193°
2026-04-29 08:53 10.62216 -79.26608 36434 ft 456 kts 193°
2026-04-29 08:53 10.59081 -79.27124 36189 ft 456 kts 193°
2026-04-29 08:53 10.55947 -79.27640 35948 ft 457 kts 193°
2026-04-29 08:53 10.52812 -79.28156 35658 ft 455 kts 193°
2026-04-29 08:54 10.49703 -79.28666 35118 ft 452 kts 192°
2026-04-29 08:54 10.46598 -79.29177 34492 ft 451 kts 192°
2026-04-29 08:54 10.43516 -79.29688 33986 ft 447 kts 193°
2026-04-29 08:54 10.40516 -79.30437 33251 ft 444 kts 200°
2026-04-29 08:55 10.37592 -79.31465 32544 ft 444 kts 201°
2026-04-29 08:55 10.34703 -79.32533 32005 ft 440 kts 201°
2026-04-29 08:55 10.31837 -79.33591 31495 ft 436 kts 201°
2026-04-29 08:55 10.28997 -79.34637 30975 ft 433 kts 201°
2026-04-29 08:56 10.26171 -79.35674 30473 ft 430 kts 200°
2026-04-29 08:56 10.23370 -79.36701 29975 ft 427 kts 200°
2026-04-29 08:56 10.20579 -79.37696 29547 ft 421 kts 198°
2026-04-29 08:56 10.17749 -79.38430 28808 ft 423 kts 192°
2026-04-29 08:57 10.14786 -79.38753 27740 ft 434 kts 182°
2026-04-29 08:57 10.11747 -79.38735 26890 ft 439 kts 180°
2026-04-29 08:57 10.08703 -79.38648 26361 ft 435 kts 180°
2026-04-29 08:57 10.05698 -79.38556 25906 ft 430 kts 180°
2026-04-29 08:58 10.02727 -79.38467 25469 ft 424 kts 179°
2026-04-29 08:58 9.99798 -79.38382 25035 ft 419 kts 179°
2026-04-29 08:58 9.96902 -79.38298 24609 ft 414 kts 179°
2026-04-29 08:58 9.94041 -79.38216 24183 ft 409 kts 179°
2026-04-29 08:59 9.91244 -79.38136 23773 ft 406 kts 179°
2026-04-29 08:59 9.88433 -79.38057 23329 ft 402 kts 179°
2026-04-29 08:59 9.85649 -79.37978 22864 ft 398 kts 179°
2026-04-29 08:59 9.82900 -79.37900 22445 ft 393 kts 179°
2026-04-29 09:00 9.80183 -79.37823 22026 ft 388 kts 179°
2026-04-29 09:00 9.77499 -79.37747 21615 ft 384 kts 179°
2026-04-29 09:00 9.74843 -79.37671 21201 ft 380 kts 179°
2026-04-29 09:00 9.72214 -79.37597 20796 ft 376 kts 179°
2026-04-29 09:01 9.69610 -79.37523 20429 ft 372 kts 179°
2026-04-29 09:01 9.67066 -79.37451 20286 ft 359 kts 179°
2026-04-29 09:01 9.64616 -79.37382 20158 ft 347 kts 179°
2026-04-29 09:01 9.62244 -79.37315 20021 ft 336 kts 179°
2026-04-29 09:02 9.59939 -79.37248 19877 ft 327 kts 178°
2026-04-29 09:02 9.57700 -79.36945 19492 ft 326 kts 164°
2026-04-29 09:02 9.55663 -79.35937 19088 ft 327 kts 146°
2026-04-29 09:02 9.53807 -79.34596 18684 ft 328 kts 143°
2026-04-29 09:03 9.51978 -79.33211 18305 ft 328 kts 143°
2026-04-29 09:03 9.50146 -79.31826 17897 ft 328 kts 143°
2026-04-29 09:03 9.48313 -79.30448 17494 ft 327 kts 143°
2026-04-29 09:03 9.46488 -79.29080 17120 ft 326 kts 143°
2026-04-29 09:04 9.44675 -79.27724 16788 ft 322 kts 143°
2026-04-29 09:04 9.42883 -79.26386 16497 ft 318 kts 143°
2026-04-29 09:04 9.41107 -79.25061 16147 ft 316 kts 143°
2026-04-29 09:04 9.39336 -79.23740 15772 ft 315 kts 143°
2026-04-29 09:05 9.37569 -79.22423 15415 ft 315 kts 143°
2026-04-29 09:05 9.35810 -79.21112 15039 ft 314 kts 143°
2026-04-29 09:05 9.34052 -79.19802 14674 ft 313 kts 143°
2026-04-29 09:05 9.32300 -79.18497 14295 ft 313 kts 143°
2026-04-29 09:06 9.30550 -79.17193 13945 ft 312 kts 143°
2026-04-29 09:06 9.28792 -79.15901 13564 ft 311 kts 145°
2026-04-29 09:06 9.26854 -79.14965 13174 ft 310 kts 165°
2026-04-29 09:06 9.24721 -79.14900 12919 ft 311 kts 191°
2026-04-29 09:07 9.22720 -79.15716 12515 ft 311 kts 211°
2026-04-29 09:07 9.20904 -79.16911 12150 ft 311 kts 214°
2026-04-29 09:07 9.19116 -79.18142 11813 ft 310 kts 214°
2026-04-29 09:07 9.17329 -79.19365 11485 ft 309 kts 214°
2026-04-29 09:08 9.15548 -79.20573 11158 ft 308 kts 213°
2026-04-29 09:08 9.13767 -79.21773 10830 ft 307 kts 213°
2026-04-29 09:08 9.12013 -79.22951 10637 ft 297 kts 213°
2026-04-29 09:08 9.10314 -79.24091 10398 ft 290 kts 213°
2026-04-29 09:09 9.08645 -79.25209 10101 ft 285 kts 213°
2026-04-29 09:09 9.07007 -79.26305 10004 ft 281 kts 213°
2026-04-29 09:09 9.05381 -79.27394 9937 ft 278 kts 213°
2026-04-29 09:09 9.03767 -79.28474 9507 ft 280 kts 213°
2026-04-29 09:10 9.02137 -79.29564 9014 ft 282 kts 213°
2026-04-29 09:10 9.00453 -79.30586 8586 ft 282 kts 208°
2026-04-29 09:10 8.98721 -79.31513 8185 ft 281 kts 207°
2026-04-29 09:10 8.96992 -79.32435 7820 ft 279 kts 208°
2026-04-29 09:11 8.95286 -79.33357 7472 ft 276 kts 208°
2026-04-29 09:11 8.93605 -79.34274 7276 ft 274 kts 208°
2026-04-29 09:11 8.91932 -79.35192 7043 ft 273 kts 209°
2026-04-29 09:11 8.90265 -79.36109 6805 ft 272 kts 209°
2026-04-29 09:12 8.88604 -79.37024 6527 ft 271 kts 209°
2026-04-29 09:12 8.86970 -79.37971 6245 ft 270 kts 213°
2026-04-29 09:12 8.85396 -79.39007 5978 ft 270 kts 214°
2026-04-29 09:12 8.83940 -79.40159 5667 ft 261 kts 231°
2026-04-29 09:13 8.83139 -79.41706 5360 ft 241 kts 261°
2026-04-29 09:13 8.83172 -79.43296 4964 ft 225 kts 287°
2026-04-29 09:13 8.83641 -79.44823 4367 ft 224 kts 293°
2026-04-29 09:13 8.84266 -79.46202 3757 ft 213 kts 310°
2026-04-29 09:14 8.85260 -79.47243 3251 ft 199 kts 323°
2026-04-29 09:14 8.86270 -79.48102 3044 ft 183 kts 324°
2026-04-29 09:14 8.87350 -79.48732 3009 ft 180 kts 352°
2026-04-29 09:14 8.88560 -79.48558 3028 ft 177 kts 22°
2026-04-29 09:15 8.89632 -79.47946 3025 ft 177 kts 31°
2026-04-29 09:15 8.90676 -79.47301 3024 ft 175 kts 29°
2026-04-29 09:15 8.91725 -79.46704 2913 ft 170 kts 28°
2026-04-29 09:15 8.92742 -79.46129 2702 ft 166 kts 28°
2026-04-29 09:16 8.93746 -79.45554 2464 ft 166 kts 28°
2026-04-29 09:16 8.94750 -79.44981 2252 ft 166 kts 28°
2026-04-29 09:16 8.95768 -79.44400 2028 ft 169 kts 28°
2026-04-29 09:16 8.96795 -79.43812 1781 ft 170 kts 28°
2026-04-29 09:17 8.97803 -79.43234 1558 ft 160 kts 26°
2026-04-29 09:17 8.98733 -79.42702 1358 ft 147 kts 27°
2026-04-29 09:17 8.99593 -79.42211 1181 ft 139 kts 27°
2026-04-29 09:17 9.00435 -79.41731 1009 ft 139 kts 28°
2026-04-29 09:18 9.01281 -79.41248 827 ft 140 kts 28°
2026-04-29 09:18 9.02131 -79.40762 653 ft 141 kts 28°
2026-04-29 09:18 9.02988 -79.40278 458 ft 142 kts 27°
2026-04-29 09:18 9.03851 -79.39796 297 ft 142 kts 28°
2026-04-29 09:19 9.04708 -79.39294 97 ft 142 kts 28°
2026-04-29 09:19 9.05506 -79.38840 46 ft 104 kts 30°
2026-04-29 09:19 9.05879 -79.38628 46 ft 24 kts 29°
2026-04-29 09:19 9.06067 -79.38521 45 ft 35 kts 30°
2026-04-29 09:20 9.06270 -79.38405 44 ft 25 kts 26°
2026-04-29 09:20 9.06402 -79.38389 46 ft 19 kts
2026-04-29 09:20 9.06497 -79.38389 44 ft 0 kts 360°
2026-04-29 09:21 9.06502 -79.38389 44 ft 3 kts 360°
2026-04-29 09:21 9.06530 -79.38389 46 ft 5 kts 360°
2026-04-29 09:21 9.06576 -79.38390 45 ft 8 kts 356°
2026-04-29 09:22 9.06630 -79.38416 45 ft 10 kts 312°
2026-04-29 09:22 9.06652 -79.38477 46 ft 9 kts 271°
2026-04-29 09:22 9.06620 -79.38529 45 ft 10 kts 252°
2026-04-29 09:22 9.06631 -79.38598 46 ft 6 kts 287°
2026-04-29 09:23 9.06633 -79.38604 46 ft 0 kts 287°